Weather History for Nellis AFB, NV

Change the Weather History Date:

Sunday, July 22, 2012

  Actual Average Record
Temperature  
Mean Temperature 94 °F -  
Max Temperature 103 °F 103 °F 113 °F (1996)
Min Temperature 85 °F 77 °F 69 °F (1999)
Cooling Degree Days 29    
Growing Degree Days 44 (Base 50)    
Moisture  
Dew Point 57 °F    
Average Humidity 29    
Maximum Humidity 41    
Minimum Humidity 19    
Precipitation  
Precipitation 0.00 in - - ()
Sea Level Pressure  
Sea Level Pressure 29.81 in    
Wind  
Wind Speed 8 mph (ESE)    
Max Wind Speed 14 mph    
Max Gust Speed 18 mph    
Visibility 10 miles    
Events      
Averages and records for this station are not official NWS values.
T = Trace of Precipitation, MM = Missing Value Source: NWS Daily Summary

Daily Weather History Graph

Daily Weather History Graph

Search for Another Location

Airport:

Trip Planner

Search our weather history database for the weather conditions in past years. The results will help you decide how hot, cold, wet, or windy it might be!

Date:

Astronomy

Jul. 22, 2012 Rise Set
Actual Time 5:39 AM PDT 7:53 PM PDT
Civil Twilight 5:10 AM PDT 8:22 PM PDT
Nautical Twilight 4:34 AM PDT 8:57 PM PDT
Astronomical Twilight 3:56 AM PDT 9:36 PM PDT
Moon 9:20 AM PDT (7/22) 9:48 PM PDT (7/22)
Length of Visible Light 15h 11m
Length of Day
14h 13m
Waxing Crescent, 14% of the Moon is Illuminated
Jul 22
Waxing Crescent
Jul 26
First Quarter
Aug 1
Full
Aug 9
Last Quarter
Aug 17
New

Hourly Weather History & Observations

Time (PDT) Temp. Heat Index Dew Point Humidity Pressure Visibility Wind Dir Wind Speed Gust Speed Precip Events Conditions
12:55 AM 91.2 °F 89.1 °F 54.7 °F 29% 29.82 in 10.0 mi ENE 9.2 mph - N/A   Clear
1:55 AM 91.4 °F 89.4 °F 55.4 °F 29% 29.83 in 10.0 mi East 11.5 mph - N/A   Scattered Clouds
2:55 AM 89.8 °F 88.4 °F 56.8 °F 33% 29.83 in 10.0 mi SE 3.5 mph - N/A   Partly Cloudy
3:55 AM 86.4 °F 85.4 °F 58.3 °F 38% 29.84 in 10.0 mi East 6.9 mph - N/A   Partly Cloudy
4:55 AM 85.3 °F 84.6 °F 58.1 °F 40% 29.83 in 10.0 mi NE 4.6 mph - N/A   Clear
5:55 AM 85.6 °F 85.2 °F 59.2 °F 41% 29.85 in 10.0 mi NE 4.6 mph - N/A   Clear
6:55 AM 86.7 °F 86.1 °F 59.4 °F 39% 29.86 in 10.0 mi ENE 9.2 mph - N/A   Clear
7:55 AM 90.0 °F 89.7 °F 60.8 °F 37% 29.87 in 10.0 mi South 4.6 mph - N/A   Clear
8:55 AM 90.3 °F 90.2 °F 60.4 °F 37% 29.89 in 10.0 mi East 4.6 mph - N/A   Clear
9:55 AM 92.3 °F 92.3 °F 60.6 °F 35% 29.89 in 10.0 mi Variable 4.6 mph - N/A   Clear
10:55 AM 95.0 °F 94.8 °F 59.9 °F 31% 29.88 in 10.0 mi Variable 3.5 mph - N/A   Clear
11:55 AM 97.3 °F 97.0 °F 59.2 °F 28% 29.86 in 10.0 mi ESE 4.6 mph - N/A   Clear
12:55 PM 98.8 °F 97.4 °F 56.7 °F 24% 29.83 in 10.0 mi East 10.4 mph - N/A   Clear
1:55 PM 100.0 °F 99.2 °F 57.0 °F 24% 29.81 in 10.0 mi SE 9.2 mph 18.4 mph N/A   Clear
2:55 PM 102.4 °F 101.1 °F 55.9 °F 21% 29.77 in 10.0 mi ESE 11.5 mph - N/A   Clear
3:55 PM 102.7 °F 101.1 °F 55.0 °F 20% 29.75 in 10.0 mi SE 9.2 mph - N/A   Clear
4:55 PM 103.3 °F 101.4 °F 54.1 °F 19% 29.74 in 10.0 mi Variable 6.9 mph - N/A   Clear
5:55 PM 102.9 °F 100.9 °F 53.8 °F 19% 29.72 in 10.0 mi Variable 6.9 mph - N/A   Clear
6:55 PM 102.2 °F 99.9 °F 53.1 °F 19% 29.72 in 10.0 mi South 13.8 mph - N/A   Clear
7:55 PM 100.9 °F 99.1 °F 53.6 °F 21% 29.74 in 10.0 mi South 11.5 mph - N/A   Clear
8:55 PM 99.5 °F 97.6 °F 53.8 °F 22% 29.76 in 10.0 mi SSE 11.5 mph - N/A   Clear
9:55 PM 97.3 °F 96.6 °F 57.7 °F 27% 29.78 in 10.0 mi South 10.4 mph - N/A   Clear
10:55 PM 95.7 °F 94.0 °F 55.2 °F 26% 29.80 in 10.0 mi South 6.9 mph - N/A   Clear
11:55 PM 95.9 °F 94.6 °F 56.5 °F 27% 29.79 in 10.0 mi South 13.8 mph - N/A   Partly Cloudy